TimeEST,TemperatureF,Dew PointF,Humidity,Sea Level PressureIn,VisibilityMPH,Wind Direction,Wind SpeedMPH,Gust SpeedMPH,PrecipitationIn,Events,Conditions,WindDirDegrees,DateUTC
12:54 AM,46.0,30.9,56,30.01,10.0,NW,10.4,-,N/A,,Overcast,320,2013-11-08 05:54:00
1:54 AM,44.1,27.0,51,30.03,10.0,NW,12.7,19.6,N/A,,Overcast,310,2013-11-08 06:54:00
2:54 AM,42.1,26.1,53,30.04,10.0,WNW,8.1,-,N/A,,Clear,300,2013-11-08 07:54:00
3:54 AM,39.0,26.1,60,30.05,10.0,WNW,9.2,-,N/A,,Clear,290,2013-11-08 08:54:00
4:54 AM,37.0,27.0,67,30.07,10.0,WNW,6.9,-,N/A,,Clear,290,2013-11-08 09:54:00
5:54 AM,37.9,27.0,65,30.09,10.0,WNW,5.8,-,N/A,,Scattered Clouds,290,2013-11-08 10:54:00
6:54 AM,37.9,28.9,70,30.11,10.0,West,5.8,-,N/A,,Scattered Clouds,270,2013-11-08 11:54:00
7:54 AM,43.0,30.9,62,30.13,10.0,West,6.9,-,N/A,,Partly Cloudy,270,2013-11-08 12:54:00
8:54 AM,46.0,30.9,56,30.12,10.0,West,10.4,-,N/A,,Clear,260,2013-11-08 13:54:00
9:54 AM,48.0,30.9,52,30.12,10.0,WNW,18.4,-,N/A,,Scattered Clouds,290,2013-11-08 14:54:00
10:54 AM,48.9,30.0,48,30.12,10.0,WNW,15.0,21.9,N/A,,Overcast,300,2013-11-08 15:54:00
11:54 AM,51.1,28.9,43,30.10,10.0,WNW,18.4,23.0,N/A,,Overcast,300,2013-11-08 16:54:00
12:54 PM,48.9,26.1,41,30.10,10.0,WNW,15.0,24.2,N/A,,Overcast,290,2013-11-08 17:54:00
1:54 PM,50.0,25.0,38,30.12,10.0,NW,19.6,28.8,N/A,,Mostly Cloudy,320,2013-11-08 18:54:00
2:54 PM,48.9,25.0,39,30.14,10.0,WNW,16.1,24.2,N/A,,Mostly Cloudy,300,2013-11-08 19:54:00
3:54 PM,46.9,27.0,46,30.16,10.0,WNW,9.2,18.4,N/A,,Mostly Cloudy,300,2013-11-08 20:54:00
4:54 PM,45.0,27.0,49,30.18,10.0,WNW,8.1,-,N/A,,Clear,300,2013-11-08 21:54:00
5:54 PM,39.9,27.0,60,30.20,10.0,West,6.9,-,N/A,,Clear,270,2013-11-08 22:54:00
6:54 PM,39.0,27.0,62,30.23,10.0,Calm,Calm,-,N/A,,Clear,0,2013-11-08 23:54:00
7:54 PM,39.0,28.0,65,30.24,10.0,WNW,6.9,-,N/A,,Clear,290,2013-11-09 00:54:00
8:54 PM,37.0,27.0,67,30.26,10.0,West,4.6,-,N/A,,Clear,280,2013-11-09 01:54:00
9:54 PM,32.0,27.0,82,30.27,10.0,WSW,3.5,-,N/A,,Clear,250,2013-11-09 02:54:00
10:54 PM,30.0,27.0,88,30.29,10.0,WSW,4.6,-,N/A,,Clear,250,2013-11-09 03:54:00
11:54 PM,32.0,27.0,82,30.29,10.0,West,4.6,-,N/A,,Clear,260,2013-11-09 04:54:00